This demonstration page uses our WeatherBlox Daily Observations layout. Learn more.

Left ArrowRight Arrow

Hourly Observations for May 26, 2020

Temp ( °F °C ) Dew Point ( °F °C ) Humidity (%) Winds ( mph kmh ) Pressure ( in mb ) Visibility ( mi km ) Precip ( " mm )
12:02 am 00:02 Cloudy 61 16.1 57 13.9 87 87 NNW 10 17 29.9 1013 10 16.0934 0 0
12:54 am 00:54 Cloudy 61 16.1 57 13.9 87 87 NNW 9 15 29.9 1012 10 16.0934 0 0
1:47 am 01:47 Cloudy 60 15.6 57 13.9 90 90 NNW 8 13 29.89 1012 10 16.0934 0 0
1:54 am 01:54 Cloudy 60 15.6 57 13.9 90 90 NNW 12 19 29.88 1012 8 12.87472 0 0
2:39 am 02:39 Cloudy 60 15.6 57 13.9 90 90 NNW 9 15 29.88 1012 10 16.0934 0 0
2:54 am 02:54 Cloudy 60 15.6 57 13.9 90 90 NNW 10 17 29.87 1012 10 16.0934 0 0
3:54 am 03:54 Cloudy with Mist and Fog 60 15.6 57 13.9 90 90 N 8 13 29.86 1011 5 8.0467 0 0
4:54 am 04:54 Cloudy with Mist and Fog 60 15.6 57 13.9 90 90 N 10 17 29.85 1011 5 8.0467 0 0
5:43 am 05:43 Cloudy with Mist and Fog 60 15.6 57 13.9 90 90 N 10 17 29.85 1011 5 8.0467 0 0
5:54 am 05:54 Cloudy with Mist and Fog 60 15.6 57 13.9 90 90 N 9 15 29.85 1011 5 8.0467 0 0
6:54 am 06:54 Cloudy with Mist and Fog 60 15.6 57 13.9 90 90 NNW 12 19 29.84 1011 3 4.82802 0 0
7:54 am 07:54 Cloudy with Mist and Fog 60 15.6 57 13.9 90 90 NNW 12 19 29.83 1010 3 4.82802 0 0
8:54 am 08:54 Cloudy with Mist and Fog 61 16.1 58 14.4 90 90 NNW 12 19 29.84 1010 3 4.82802 0 0
9:54 am 09:54 Cloudy with Mist and Fog 61 16.1 58 14.4 90 90 NNW 12 19 29.84 1011 5 8.0467 0 0
10:54 am 10:54 Cloudy with Mist and Fog 62 16.7 59 15 90 90 NNW 14 22 29.83 1010 4 6.43736 0 0
11:54 am 11:54 Cloudy 63 17.2 60 15.6 90 90 N 14 22 29.82 1010 7 11.26538 0 0
12:54 pm 12:54 Cloudy 65 18.3 60 15.6 84 84 N 15 24 29.81 1010 10 16.0934 0 0
1:54 pm 13:54 Cloudy 65 18.3 58 14.4 78 78 N 16 26 29.8 1009 9 14.48406 0 0
2:54 pm 14:54 Cloudy 66 18.9 59 15 78 78 NNW 17 28 29.8 1009 10 16.0934 0 0
3:54 pm 15:54 Cloudy 67 19.4 59 15 76 76 N 16 26 29.78 1008 9 14.48406 0 0
4:54 pm 16:54 Cloudy 68 20 59 15 73 73 NNW 17 28 29.79 1009 10 16.0934 0 0
5:40 pm 17:40 Cloudy 68 20 59 15 73 73 NNW 13 20 29.77 1008 10 16.0934 0 0
5:54 pm 17:54 Cloudy 67 19.4 59 15 76 76 NNW 10 17 29.79 1009 10 16.0934 0 0
6:54 pm 18:54 Cloudy 67 19.4 59 15 76 76 NNW 12 19 29.8 1009 10 16.0934 0 0
7:31 pm 19:31 Cloudy 67 19.4 58 14.4 73 73 NNW 14 22 29.79 1009 10 16.0934 0 0
7:54 pm 19:54 Cloudy 67 19.4 58 14.4 73 73 NW 9 15 29.82 1010 10 16.0934 0 0
8:09 pm 20:09 Cloudy 66 18.9 58 14.4 75 75 NW 12 19 29.8 1009 10 16.0934 0 0
8:51 pm 20:51 Cloudy 64 18 57 14 78 78 N 10 17 29.82 1010 10 16.0934 0 0
8:54 pm 20:54 Cloudy 65 18.3 58 14.4 78 78 N 9 15 29.83 1010 10 16.0934 0 0
9:44 pm 21:44 Cloudy 64 17.8 57 13.9 78 78 WNW 6 9 29.85 1011 10 16.0934 0 0
9:54 pm 21:54 Cloudy 64 17.8 57 13.9 78 78 W 6 9 29.85 1011 10 16.0934 0 0
10:34 pm 22:34 Cloudy 64 17.8 57 13.9 78 78 NW 8 13 29.86 1011 10 16.0934 0 0
10:54 pm 22:54 Cloudy 63 17.2 57 13.9 81 81 WNW 7 11 29.86 1011 10 16.0934 0 0
11:54 pm 23:54 Mostly Clear 62 16.7 56 13.3 80 80 NNW 5 7 29.86 1011 10 16.0934 0 0

Powered by AerisWeather